Погода в Оймяконе

Хотите узнать прогноз погоды в Оймяконе? Тогда Вам сюда: Погода в Оймяконе

Поиск расширенной информации на нашем сайте:

Полезная информация:

Новости сайта



02.01.2020
Опубликован Долгосрочный прогноз погоды по городам России и ближнего зарубежья на январь 2020 года.
Карты: Прогноз на январь и февраль 2020 года, Сравнение прогнозируемой аномалии приземной температуры воздуха на январь 2020 года по разным моделям.




Погода в Оймяконе - сегодня

Время (UTC), дата Ветер
(°,м/с) 
Видим.   Явления Облачность Т
(°С)
Тd
(°С)
f(%) Тe
(°С)
Pmin
(гПа)
dP
(гПа)
Po
(мм)
O2
(г/м3)
Тmin Tmax R s Состояние
почвы
06 27.11.21 тихо ()   20000 м    3/0 верхняя 
[Ci fib]
-43.4 -45.6 79 -43  1035.4  -1.3  696  336           
09 27.11.21 тихо ()   2000 м  дымка  3/0 верхняя 
[Ci fib]
-44.8 -47.1 77 -45  1035  -1  695  337    -42.5  0.0     
12 27.11.21 тихо ()   4000 м  дымка  3/0 верхняя 
[Ci fib]
-44.8 -47.1 77 -45  1033  -1.8  694  337           
15 27.11.21 тихо ()   20000 м    10/0 средняя, верхняя 
[Ac trans|Ci fib]
-41.7 -43.7 81 -42  1029.5  -1.9  693  331           
18 27.11.21 тихо ()   4000 м  слаб. снег  10/0 средняя 
[Ac As]
-39.1 -41.1 81 -39  1027.6  -0.4  692  328           
21 27.11.21 040 (СВ) 10 км  слаб. снег  10/0 средняя 
[Ac As]
-37.3 -39.5 80 -38  1026.7  -0.2  692  325  -45.7    0.4  21  равномерный
сухой снег
100% 
00 28.11.21 060 (СВ) 20000 м  слаб. снег  8/0 средняя, верхняя 
[Ac trans|Ci fib]
-38.1 -40.3 80 -39  1026.5  -0.4  692  326           
03 28.11.21 тихо ()   20000 м  слаб. снег  3/0 средняя, верхняя 
[Ac trans|Ci fib]
-38.1 -40.3 80 -38  1025.6  -0.8  691  326           
06 28.11.21 270 (З) 20000 м  {снег}  3/0 верхняя 
[Ci fib]
-43 -44.9 81 -44  1027.5  -0.3  691  332           
09 28.11.21 тихо ()   20000 м    ясно 
-46 -48 80 -46  1029  691  337    -38  0.0     
12 28.11.21 тихо ()   20000 м    6/0 верхняя 
[Ci fib]
-44.7 -47.1 77 -45  1027.5  -0.7  691  335           
15 28.11.21 тихо ()   10 км  слаб. снег  10/10 300 м 
[St]
-41.2 -43.1 81 -41  1025.2  -0.6  690  329           
18 28.11.21 тихо ()   20000 м  слаб. снег  10/10 300 м 
[St]
-38.3 -40.3 81 -38  1023.8  -0.2  690  325           
21 28.11.21 тихо ()   10 км  слаб. снег  10/0 средняя, верхняя 
[Ac trans|Cs]
-37.3 -39.5 80 -37  1023.2  -0.1  690  324  -46.9    0.2  21  равномерный
сухой снег
100% 
00 29.11.21 тихо ()   10 км  слаб. снег  10/0 средняя, верхняя 
[Ac trans|Cs]
-36.5 -38.7 80 -37  1022.3  -0.4  690  323           
03 29.11.21 тихо ()   20000 м  слаб. снег  10/0 средняя, верхняя 
[Ac trans|Cs]
-35 -37.4 79 -35  1021.1  -0.5  689  320           
06 29.11.21 тихо ()   10 км  слаб. снег  10/0 средняя, верхняя 
[Ac trans|Cs]
-35.1 -37.4 79 -35  1021.3  0.2  689  321           
09 29.11.21 тихо ()   10 км  слаб. снег  10/0 средняя, верхняя 
[Ac trans|Cs]
-36.2 -38.4 80 -36  1021.9  0.2  689  322    -34.4  0.7     
12 29.11.21 тихо ()   10 км  слаб. снег  10/0 средняя, верхняя 
[Ac trans|Cs]
-38 -40.3 79 -38  1022.9  689  325           
15 29.11.21 тихо ()   10 км  слаб. снег  10/0 средняя, верхняя 
[Ac trans|Cs]
-39.2 -41.1 82 -39  1022.9  -0.4  689  326           
18 29.11.21 тихо ()   20000 м  слаб. снег  10/0 верхняя 
[Cs]
-43.7 -45.6 81 -44  1025.5  0.4  689  333           
21 29.11.21 тихо ()   20000 м  слаб. снег  10/0 верхняя 
[Cs]
-44.3 -46.3 80 -44  1026.1  0.2  690  334  -45.3    0.3  22  равномерный
сухой снег
100% 
00 30.11.21 260 (З) 10 км  слаб. снег  10/0 верхняя 
[Cs]
-43.9 -45.6 83 -45  1026.3  0.3  690  333  -45.4         
03 30.11.21 тихо ()   4000 м  слаб. снег  8/0 верхняя 
[Cs]
-41.8 -43.7 82 -42  1025.7  0.4  690  330           
06 30.11.21 тихо ()   20000 м  {снег}  3/0 верхняя 
[Ci fib]
-46.1 -48.5 77 -46  1028.4  0.6  691  337           
Время (UTC), дата Ветер
(°,м/с) 
Видим.   Явления Облачность Т
(°С)
Тd
(°С)
f(%) Тe
(°С)
Pmin
(гПа)
dP
(гПа)
Po
(мм)
O2
(г/м3)
Тmin Tmax R s Состояние
почвы

Для получения пояснительной информации подведите курсор к названию столбца.

ПОГОДА в Оймяконе - архив

Всё, что Вы хотите узнать о погоде в Оймяконе - удобно и подробно!

Выберите нужную дату (начиная с 1 января 2019* года) и нажмите кнопку "Найти".
Будут отображены архивные сводки погоды по пункту Оймякон, начиная с указанной даты.


Отображать данные в формате CSV (для использования в таблицах Excel)


Внимание! Наш архив погоды предназначен исключительно для личного некоммерческого использования в познавательных целях. Если Вам необходимы официальные справки о состоянии погоды (для производственных, юридических, коммерческих и т.п. целей), обращайтесь в органы Росгидромета.

*Примечание: данная дата относится к архиву по метеостанциям СССР (Россия, СНГ, Балтия).
Архив по метеостанциям Зарубежной Европы и Азии (кроме Китая) хранится 10 дней, по другим регионам земного шара (Китай, Африка, Америка, Австралия, Океания) - 1 день.

Оймякон - район местоположения метеостанции


Название, широта, долгота, высота метеостанции:
Оймякон 63.2°ш. 143.2°д. 741 м над ур. моря [Российская Федерация]

Дополнительная информация

В oтличие oт бoльшинства пoгoдных сайтoв мы публикуем пoдрoбную метеoинфoрмацию в детальнoм прoфессиoнальнoм фoрмате.

Характеристики температуры и влажнoсти вoздуха измеряются на высoте 2 м в тени вдали oт зданий и деревьев.
Скoрoсть ветра измеряется на высoте 10 м (на урoвне рoста челoвека скoрoсть ветра ниже в 1.5-2 раза). Если метеoстанция нахoдится в гoрoде или в лесу, тo скoрoсть ветра занижена на 2-4 м/с пo сравнению с oткрытым местoм. Скoрoсть ветра над акватoриями крупных рек и oзёр, а также на вершинах хoлмoв на 2-5 м/с выше, чем в oбычных услoвиях.
Атмoсфернoе давление в разных тoчках местнoсти мoжет значительнo oтличаться oт давления на метеoстанции, в зависимoсти oт услoвий рельефа (при пoдъёме на 10 м давление пoнижается примернo на 1 мм рт.ст.).